Tracking 25686 objects as of 25-May-2022
HD Live streaming from Space Station
objects crossing your sky now

COSMOS 917 DEB

Track COSMOS 917 DEB now!


NORAD ID: 48089
Int'l Code: 1977-047T
Perigee: 3,962.3 km
Apogee: 36,431.0 km
Inclination: 71.6 °
Period: 718.3 minutes
Semi major axis: 26567 km
RCS: Unknown
Launch date: June 16, 1977
Source: Commonwealth of Independent States (former USSR) (CIS)
Launch site: PLESETSK MISSILE AND SPACE COMPLEX (PKMTR)

Note: This is SATELLITE DEBRIS
aabbcc
Your satellite tracking list
Your tracking list is empty




NASA's NSSDC Master Catalog

Two Line Element Set (TLE):
1 48089U 77047T   22138.95400599  .00000354  00000-0  00000-0 0  9993
2 48089  71.5866 140.2344 6110570 183.2242 169.5690  2.00480906 62221
Source of the keplerian elements: AFSPC